HST 1 20580U 90037B 25110.12898456 .00010160 00000-0 39258-3 0 9994 2 20580 28.4676 78.2549 0002049 167.9889 192.0754 15.24538580723818 ISS (ZARYA) 1 25544U 98067A 25111.19301809 .00019709 00000-0 35505-3 0 9998 2 25544 51.6358 229.3307 0005376 59.9494 300.2027 15.49781560506323 CXO 1 25867U 99040B 25111.25672861 .00001023 00000-0 00000+0 0 9992 2 25867 48.2098 132.5741 8508591 308.4643 0.0367 0.37803149 26883